[[{"header":{"parameterUnit":"m.s-1","parameterCategory":1,"la1":30.2992,"la2":30.254,"lo1":-89.0895,"lo2":-89.0443,"dy":0.0025,"dx":0.0025,"nx":19,"ny":19,"refTime":"2026-05-17T03:00:00:Z","depth":0,"parameterNumber":2,"parameterNumberName":"U-component_of_WINDS"},"data":[0,0,0,-4.5804,-4.5806,-4.5897,-4.5898,-4.6026,-4.6027,0,0,0,0,0,0,0,0,0,0,0,-4.5784,-4.5785,-4.5803,-4.5806,-4.5897,-4.5898,-4.6026,-4.6027,0,0,0,0,0,0,0,0,0,0,0,-4.5784,-4.5785,-4.5786,-4.5806,-4.5897,-4.5898,-4.6025,-4.5952,0,0,0,0,0,0,0,0,0,0,-4.5861,-4.5851,-4.5785,-4.5787,-4.5807,-4.5897,-4.5898,-4.5948,-4.5957,-4.599,0,-4.6022,0,-4.6027,-4.6037,-4.6037,0,0,0,-4.58,-4.5844,-4.5862,-4.5787,-4.5808,-4.5897,-4.5854,-4.5953,-4.5962,-4.6001,-4.6024,-4.6028,-4.6029,-4.6038,-4.6038,-4.6251,-4.6252,0,0,-4.5795,-4.5804,-4.5856,-4.5869,-4.5856,-4.5852,-4.5857,-4.5958,-4.5983,-4.6024,-4.6031,-4.6031,-4.6039,-4.604,-4.625,-4.6252,0,0,0,-4.5784,-4.5801,-4.5816,-4.5864,-4.5879,-4.5854,-4.5861,-4.5979,-4.5983,-4.6032,-4.6033,-4.6039,-4.6041,-4.6249,-4.6251,-4.6322,0,0,0,-4.5781,-4.5795,-4.5814,-4.5821,-4.5878,-4.593,-4.5879,-4.5976,-4.5987,-4.6032,-4.6039,-4.6042,-4.6247,-4.625,-4.6317,-4.6354,0,0,0,-4.5776,-4.5794,-4.581,-4.5821,-4.5861,-4.5929,-4.5938,-4.5978,-4.5988,-4.6037,-4.6043,-4.6246,-4.6249,-4.6313,-4.6346,-4.6411,0,0,0,-4.5772,-4.5872,-4.5812,-4.5924,-4.5861,-4.5974,-4.5938,-4.6021,-4.6072,-4.604,-4.6247,-4.625,-4.6311,-4.6342,-4.6407,-4.6466,-4.6493,0,0,-4.5904,-4.5888,-4.5954,-4.5902,-4.6028,-4.5959,-4.6095,-4.6132,-4.6128,-4.621,-4.6215,-4.6319,-4.6346,-4.641,-4.6642,-4.6663,0,0,0,-4.5999,-4.6046,-4.6077,-4.6127,-4.6159,-4.6189,-4.6205,-4.6219,-4.6289,-4.6173,-4.6361,-4.6377,-4.6414,-4.6442,-4.646,-4.6491,-4.6264,-4.6264,-4.6264,-4.6196,-4.6187,-4.6295,-4.6297,-4.6346,-4.6363,-4.6401,-4.6422,-4.6398,-4.6443,-4.6466,-4.6608,-4.6641,-4.6654,-4.6687,-4.6499,-4.6499,-4.65,-4.65,-4.6387,-4.6451,-4.6419,-4.6511,-4.6501,-4.6578,-4.6598,-4.6579,-4.6648,-4.6589,-4.6622,-4.6555,-4.6678,-4.6706,-4.6505,-4.6504,-4.6503,-4.6503,-4.6503,-4.6513,-4.6542,-4.6559,-4.6631,-4.6688,-4.6687,-4.6756,-4.6744,-4.6734,-4.6766,-4.6789,-4.6788,-4.6783,-4.6779,-4.6779,-4.678,-4.678,-4.678,-4.6781,-4.6635,-4.6653,-4.6713,-4.6757,-4.6788,-4.6828,-4.6847,-4.6877,-4.6907,-4.6893,-4.6893,-4.6863,-4.6693,-4.6649,-4.6788,-4.6787,-4.6786,-4.6785,-4.6785,-4.6827,-4.6783,-4.6875,-4.6907,-4.6958,-4.7015,-4.7001,-4.7063,-4.7087,-4.7121,-4.7086,-4.6963,-4.6945,-4.6931,-4.6894,-4.7089,-4.7089,-4.7089,-4.7089,-4.6931,-4.6923,-4.7015,-4.7066,-4.7115,-4.7113,-4.7217,-4.7234,-4.7244,-4.7258,-4.7229,-4.7181,-4.7167,-4.7157,-4.7138,-4.7103,-4.7347,-4.7347,-4.7347,-4.7048,-4.7044,-4.7134,-4.7146,-4.7186,-4.7221,-4.7318,-4.7377,-4.738,-4.7358,-4.7268,-4.7257,-4.7179,-4.7154,-4.7126,-4.7096,-4.7032,0,0]},{"header":{"parameterUnit":"m.s-1","parameterCategory":1,"la1":30.2992,"la2":30.254,"lo1":-89.0895,"lo2":-89.0443,"dy":0.0025,"dx":0.0025,"nx":19,"ny":19,"refTime":"2026-05-17T03:00:00:Z","depth":0,"parameterNumber":3,"parameterNumberName":"V-component_of_WINDS"},"data":[0,0,0,3.4043,3.4044,3.4054,3.4054,3.408,3.4081,0,0,0,0,0,0,0,0,0,0,0,3.4048,3.4048,3.4043,3.4044,3.4054,3.4054,3.408,3.4081,0,0,0,0,0,0,0,0,0,0,0,3.4047,3.4048,3.4048,3.4044,3.4054,3.4054,3.408,3.4068,0,0,0,0,0,0,0,0,0,0,3.4055,3.4066,3.4048,3.4048,3.4044,3.4054,3.4054,3.4067,3.4068,3.4081,0,3.4094,0,3.4088,3.4083,3.4083,0,0,0,3.4038,3.4065,3.4061,3.4049,3.4044,3.4054,3.4048,3.4067,3.4069,3.4083,3.4094,3.4095,3.4088,3.4083,3.4084,3.4177,3.4178,0,0,3.4037,3.4053,3.406,3.4063,3.4062,3.4047,3.4048,3.4068,3.4081,3.4094,3.4095,3.4089,3.4084,3.4084,3.4177,3.4177,0,0,0,3.4039,3.4053,3.4048,3.4062,3.4063,3.4048,3.4049,3.4081,3.4078,3.4095,3.4089,3.4084,3.4084,3.4176,3.4177,3.4229,0,0,0,3.4039,3.4054,3.4049,3.4059,3.4063,3.4072,3.4061,3.4076,3.4078,3.4089,3.4084,3.4085,3.4175,3.4176,3.4225,3.425,0,0,0,3.4044,3.4055,3.4059,3.4059,3.4065,3.4071,3.407,3.4076,3.4075,3.4083,3.4085,3.4174,3.4176,3.4223,3.4245,3.428,0,0,0,3.4054,3.4103,3.406,3.4113,3.4065,3.4104,3.4069,3.4097,3.4111,3.4084,3.4175,3.4177,3.4222,3.4242,3.4277,3.4312,3.4328,0,0,3.4125,3.4113,3.4142,3.4104,3.4155,3.4101,3.4159,3.4155,3.4141,3.4166,3.4168,3.4226,3.4245,3.4279,3.4414,3.4427,0,0,0,3.417,3.4192,3.4202,3.4216,3.4216,3.4218,3.4204,3.4204,3.4224,3.4157,3.4248,3.4258,3.4278,3.4294,3.4305,3.4321,3.4185,3.4185,3.4185,3.4292,3.4273,3.4322,3.4304,3.4319,3.4306,3.4316,3.4313,3.4287,3.4309,3.4316,3.44,3.442,3.4428,3.4445,3.4333,3.4333,3.4334,3.4334,3.4395,3.4423,3.4391,3.4426,3.4406,3.4435,3.4425,3.4407,3.4432,3.4393,3.4409,3.4368,3.4443,3.4457,3.4337,3.4337,3.4336,3.4336,3.4336,3.4472,3.4482,3.4482,3.4503,3.4521,3.4502,3.4528,3.4508,3.4489,3.4506,3.4512,3.4511,3.4508,3.451,3.451,3.4511,3.4511,3.4511,3.4511,3.4553,3.4551,3.4576,3.4582,3.459,3.4598,3.4587,3.4595,3.4597,3.4581,3.4581,3.4554,3.4454,3.4429,3.4516,3.4515,3.4514,3.4514,3.4514,3.4663,3.4636,3.4674,3.4683,3.469,3.471,3.4685,3.4703,3.4706,3.4719,3.469,3.4619,3.4604,3.4595,3.4575,3.4694,3.4694,3.4694,3.4694,3.4729,3.472,3.4756,3.4771,3.4784,3.4766,3.4811,3.4805,3.4793,3.4794,3.4774,3.4745,3.4737,3.4727,3.4715,3.4695,3.4843,3.4843,3.4843,3.4796,3.4788,3.483,3.482,3.4824,3.4829,3.4871,3.489,3.4871,3.4849,3.4794,3.4788,3.4741,3.4727,3.4702,3.4684,3.4648,0,0]}]]